Flag for Cabo Verde Weather past 2 weeks in Santa Maria, Cabo Verde

91 °F

Broken clouds.

Feels Like: 100 °F
Forecast: N/A
Wind: 16 mph from North

Location: Sal

Current Time: Oct 4, 2015 at 3:12:13 PM

Latest Report: Oct 4, 2015 at 2:00 PM

Visibility: 5 mi

Pressure: 29.95 "Hg

Humidity: 56%

Dew point: 73 °F

Location of Santa MariaLocation

Historic Weather in Santa Maria — Graph


Santa Maria temperature yesterday

Maximum temperature yesterday: 90 °F (at 10:00 AM)
Minimum temperature yesterday: 79 °F (at 3:00 AM)
Average temperature yesterday: 84 °F

Past Weeks' High & Low Weather Summary

High100 °F (Sep 25, 6:00 PM)100% (Oct 2, 5:00 AM)30.04 "Hg (Oct 2, 5:00 AM)
Low77 °F (Sep 19, 11:00 PM)42% (Sep 25, 6:00 PM)29.83 "Hg (Sep 29, 3:00 PM)
Average82 °F75%29.93 "Hg
* Reported Sep 19 1:00 PM — Oct 4 1:00 PM, Santa Maria, Weather by CustomWeather, © 2015

Note: Actual official high and low records may vary slightly from our data, if they occured in-between our weather recording intervals... More about our weather records


Santa Maria weather history for previous 24 hours

Time TempWeatherWind HumidityBarometerVisibility
1:00 PM
Sun, Oct 4
88 °FPartly sunny.18 mph70%29.95 "Hg4 mi
12:00 PM86 °FBroken clouds.16 mph70%29.98 "Hg6 mi
11:00 AM84 °FMostly cloudy.10 mph74%30.01 "Hg6 mi
8:00 AM81 °FBroken clouds.5 mph94%30.04 "Hg3 mi
7:00 AM81 °FScattered clouds.2 mph94%30.04 "Hg3 mi
6:00 AM81 °FBroken clouds.2 mph89%29.98 "Hg3 mi
5:00 AM81 °FBroken clouds.2 mph89%29.95 "Hg3 mi
4:00 AM81 °FPartly cloudy.2 mph89%29.92 "Hg3 mi
3:00 AM81 °FPartly cloudy.2 mph89%29.92 "Hg3 mi
2:00 AM81 °FPartly cloudy.3 mph89%29.95 "Hg3 mi
1:00 AM81 °FPartly cloudy.3 mph89%29.95 "Hg3 mi
12:00 AM82 °FPartly cloudy.6 mph79%29.95 "Hg3 mi
11:00 PM
Sat, Oct 3
82 °FPassing clouds.6 mph79%29.98 "Hg3 mi
10:00 PM82 °FPassing clouds.5 mph84%29.98 "Hg3 mi
7:00 PM84 °FPartly cloudy.6 mph79%29.92 "Hg4 mi
6:00 PM86 °FPartly cloudy.6 mph75%29.89 "Hg4 mi
5:00 PM86 °FPassing clouds.7 mph75%29.89 "Hg4 mi
4:00 PM90 °FBroken clouds.7 mph67%29.89 "Hg4 mi
3:00 PM90 °FBroken clouds.8 mph67%29.89 "Hg4 mi
Weather by CustomWeather, © 2015

See weather overviewHow to use our weather pages